Location: Deneb Observatory
(47.2267°N, 100.4953°W)
Time: 18:15:54
(UTC-06:00)

Amateur Radio Satellites - All Passes

Search period start: 24 February 2017 17:45
Search period end: 25 February 2017 17:45
Location: Deneb Observatory, 47.2267°N, 100.4953°W

Satellite Date Start Highest point End Downlink Frequencies (MHz)
Time Altitude Azimuth
CUTE-I 24 Feb 17:52:19 17:57:37 72° 72° (ENE) 18:02:59 437.470
XW-2A 24 Feb 17:52:29 17:53:43 12° 62° (ENE) 17:54:57 145.665 - 145.685
NUDT-PHONESAT 24 Feb 17:56:34 18:00:17 66° 75° (ENE) 18:04:04 437.300
LilacSat-2 24 Feb 17:57:18 18:01:12 86° 75° (ENE) 18:05:07 437.200
NO-84 24 Feb 17:59:37 18:02:43 39° 137° (SE) 18:06:05 435.350 FM
STARS 24 Feb 18:02:35 18:07:03 83° 285° (WNW) 18:11:29 437.465
CUTE 1.7 + AOD 2 24 Feb 18:08:30 18:11:07 16° 61° (ENE) 18:13:46 437.475
HO-68 24 Feb 18:15:38 18:22:08 39° 60° (ENE) 18:28:39 435.675
CUBEBUG 2 24 Feb 18:19:25 18:20:48 11° 56° (NE) 18:22:11 437.445
M-CUBED/EXP-1 PRIME 24 Feb 18:46:55 18:50:34 60° 292° (WNW) 18:54:29 437.505
DOVE 4 24 Feb 18:50:31 18:54:02 26° 266° (W) 18:57:35 437.250
PCSat 24 Feb 18:53:23 18:57:59 27° 320° (NW) 19:02:36 145.827
KAITUO 1B 24 Feb 18:55:08 18:58:22 26° 265° (W) 19:01:39 145.475/437.950
UWE-3 24 Feb 18:56:53 18:59:43 17° 60° (ENE) 19:02:37 435.000/436.395/437.385
AAUSAT CUBESAT 2 24 Feb 18:58:51 19:01:39 18° 63° (ENE) 19:04:28 437.432
XW-2F 24 Feb 18:58:52 19:01:50 21° 267° (W) 19:04:51 145.980 - 146.000
XW-2D 24 Feb 19:03:19 19:06:03 18° 268° (W) 19:08:48 145.860 - 145.880
KKS-1 24 Feb 19:04:31 19:06:26 13° 303° (WNW) 19:08:22 437.445
SEEDS 24 Feb 19:05:48 19:09:44 38° 70° (ENE) 19:13:40 437.485
XW-2B 24 Feb 19:08:34 19:11:07 17° 269° (W) 19:13:41 145.730 - 145.750
XW-2C 24 Feb 19:17:51 19:19:49 14° 270° (W) 19:21:49 145.795 - 145.815
ZACube-1 24 Feb 19:19:41 19:22:36 17° 60° (ENE) 19:25:33 437.345
XW-2A 24 Feb 19:22:42 19:26:02 56° 259° (W) 19:29:26 145.665 - 145.685
CUBESAT XI-V 24 Feb 19:24:47 19:26:49 13° 303° (WNW) 19:28:52 437.345
STRAND 1 24 Feb 19:27:58 19:32:31 30° 95° (E) 19:37:01 437.568
NUDT-PHONESAT 24 Feb 19:33:43 19:34:40 11° 272° (W) 19:35:38 437.300
CUTE-I 24 Feb 19:34:43 19:38:14 18° 271° (W) 19:41:46 437.470
NO-84 24 Feb 19:37:04 19:40:22 41° 338° (NNW) 19:44:00 435.350 FM
STARS 24 Feb 19:41:11 19:42:40 11° 304° (NW) 19:44:08 437.465
CUTE 1.7 + AOD 2 24 Feb 19:42:16 19:46:31 61° 259° (W) 19:50:46 437.475
RS-15 24 Feb 19:48:40 20:00:40 64° 317° (NW) 20:13:03 29.354- 29.394
CUBEBUG 2 24 Feb 19:52:07 19:56:34 78° 73° (ENE) 20:01:11 437.445
HO-68 24 Feb 20:02:47 20:09:43 50° 260° (W) 20:16:41 435.675
AO-73 24 Feb 20:07:01 20:11:12 41° 69° (ENE) 20:15:30 145.935
Oscar 11 24 Feb 20:14:51 20:18:58 43° 70° (ENE) 20:23:06 .
UWE-3 24 Feb 20:31:12 20:35:38 67° 259° (W) 20:40:14 435.000/436.395/437.385
AAUSAT CUBESAT 2 24 Feb 20:32:43 20:36:46 51° 260° (W) 20:40:50 437.432
DELFI C3 24 Feb 20:37:44 20:40:57 24° 66° (ENE) 20:44:09 145.870
YUBILEINY 24 Feb 20:39:27 20:46:50 29° 62° (ENE) 20:54:09 435.215
SEEDS 24 Feb 20:42:11 20:45:32 22° 267° (W) 20:48:54 437.485
PCSat 24 Feb 20:42:16 20:43:22 11° 345° (NNW) 20:44:28 145.827
ZACube-1 24 Feb 20:53:57 20:58:23 64° 259° (W) 21:02:56 437.345
STRAND 1 24 Feb 21:06:58 21:11:47 40° 293° (WNW) 21:16:33 437.568
NO-84 24 Feb 21:15:39 21:18:48 25° 360° (N) 21:22:10 435.350 FM
CUBEBUG 2 24 Feb 21:31:53 21:33:49 12° 274° (W) 21:35:46 437.445
LO-87 24 Feb 21:35:08 21:36:51 13° 62° (ENE) 21:38:34 145.935 - 145.965
AO-73 24 Feb 21:44:00 21:47:36 23° 268° (W) 21:51:15 145.935
Oscar 11 24 Feb 21:51:58 21:55:17 21° 268° (W) 21:58:38 .
FO-29 24 Feb 21:53:22 21:58:03 17° 82° (E) 22:02:31 435.910
SO-50 24 Feb 21:55:18 21:57:43 14° 110° (ESE) 22:00:08 436.795
RS-15 24 Feb 22:05:07 22:16:10 36° 348° (NNW) 22:27:16 29.354- 29.394
ESTCUBE 1 24 Feb 22:07:58 22:11:20 21° 63° (ENE) 22:14:44 437.505/2401.250
DELFI C3 24 Feb 22:12:03 22:15:37 32° 264° (W) 22:19:12 145.870
UNISAT 6 24 Feb 22:26:51 22:31:19 40° 97° (E) 22:35:43 437.425
TIGRISAT 24 Feb 22:27:24 22:31:48 38° 97° (E) 22:36:09 435.000
PRISM 24 Feb 22:28:51 22:32:57 88° 284° (WNW) 22:37:02 437.425
YUBILEINY 24 Feb 22:35:49 22:44:32 74° 265° (W) 22:53:09 435.215
VELOX 1 24 Feb 22:37:07 22:39:38 15° 59° (ENE) 22:42:09 145.980
O/OREOS (USA 219) 24 Feb 22:40:46 22:44:12 22° 102° (ESE) 22:47:39 437.305
SPROUT 24 Feb 22:49:50 22:52:22 15° 60° (ENE) 22:54:52 437.525
NO-84 24 Feb 22:53:33 22:57:15 38° 20° (NNE) 23:01:12 435.350 FM
LO-87 24 Feb 23:06:27 23:09:54 52° 259° (W) 23:13:24 145.935 - 145.965
DUCHIFAT 1 24 Feb 23:25:30 23:27:30 13° 89° (E) 23:29:28 145.980
SO-50 24 Feb 23:32:52 23:37:34 86° 306° (NW) 23:42:12 436.795
EO-79 24 Feb 23:34:42 23:37:48 19° 92° (E) 23:40:53 145.935-145.965
FO-29 24 Feb 23:36:34 23:44:23 79° 104° (ESE) 23:51:29 435.910
50 SAT 24 Feb 23:37:48 23:40:57 32° 70° (ENE) 23:44:07 437.505
ESTCUBE 1 24 Feb 23:43:27 23:47:50 49° 260° (W) 23:52:14 437.505/2401.250
POLYITAN 1 24 Feb 23:51:34 23:55:20 28° 95° (E) 23:59:02 437.675
NANOSAT C BR1 24 Feb 23:51:42 23:55:19 26° 95° (E) 23:58:54 145.865
QB50P2 24 Feb 23:54:25 23:58:18 32° 96° (E) 00:02:10 145.880/145.840
UNISAT 6 25 Feb 00:03:53 00:07:50 27° 295° (WNW) 00:11:44 437.425
TIGRISAT 25 Feb 00:04:20 00:08:20 28° 295° (WNW) 00:12:18 435.000
DX 1 25 Feb 00:04:48 00:08:57 48° 70° (ENE) 00:13:08 434.975-435.025
AIST 2D 25 Feb 00:06:01 00:09:36 68° 103° (ESE) 00:13:07 435.315
PRISM 25 Feb 00:06:41 00:07:34 11° 303° (WNW) 00:08:26 437.425
PCSat 25 Feb 00:10:39 00:15:03 24° 38° (NE) 00:19:25 145.827
VELOX 1 25 Feb 00:11:12 00:15:34 70° 258° (WSW) 00:19:58 145.980
UKube-1 25 Feb 00:18:03 00:22:11 48° 70° (ENE) 00:26:21 .
O/OREOS (USA 219) 25 Feb 00:19:00 00:23:18 45° 301° (WNW) 00:27:40 437.305
RS-15 25 Feb 00:21:22 00:32:53 41° 22° (NNE) 00:44:08 29.354- 29.394
SPROUT 25 Feb 00:23:34 00:27:47 65° 259° (WSW) 00:32:03 437.525
BUGSAT 1 25 Feb 00:24:02 00:27:08 19° 92° (E) 00:30:13 437.445
NO-84 25 Feb 00:31:07 00:35:09 62° 219° (SW) 00:39:27 435.350 FM
YUBILEINY 25 Feb 00:34:56 00:39:42 16° 288° (WNW) 00:44:26 435.215
DUCHIFAT 1 25 Feb 00:59:23 01:03:39 69° 286° (WNW) 01:07:53 145.980
EO-79 25 Feb 01:09:41 01:13:48 46° 290° (WNW) 01:17:54 145.935-145.965
Oscar 19 25 Feb 01:10:18 01:13:56 19° 91° (E) 01:17:32 437.125/150
50 SAT 25 Feb 01:11:43 01:14:11 18° 267° (W) 01:16:40 437.505
SO-50 25 Feb 01:15:17 01:18:41 20° 328° (NNW) 01:22:03 436.795
FO-29 25 Feb 01:22:20 01:28:34 28° 305° (NW) 01:34:29 435.910
NANOSAT C BR1 25 Feb 01:27:13 01:31:05 34° 292° (WNW) 01:34:55 145.865
POLYITAN 1 25 Feb 01:27:17 01:31:07 31° 293° (WNW) 01:34:54 437.675
QB50P2 25 Feb 01:30:20 01:34:01 28° 294° (WNW) 01:37:40 145.880/145.840
AIST 2D 25 Feb 01:41:25 01:42:18 11° 299° (WNW) 01:43:10 435.315
DX 1 25 Feb 01:42:20 01:45:24 19° 268° (W) 01:48:30 434.975-435.025
ITUPSAT 1 25 Feb 01:44:45 01:48:59 32° 65° (ENE) 01:53:14 437.325
Gurwin Techsat 1B 25 Feb 01:50:43 01:55:08 26° 93° (E) 01:59:30 435.225
BEESAT 25 Feb 01:51:30 01:55:52 36° 67° (ENE) 02:00:16 436.000
PCSat 25 Feb 01:53:37 01:59:05 80° 239° (WSW) 02:04:30 145.827
UKube-1 25 Feb 01:55:26 01:58:29 19° 268° (W) 02:01:32 .
BUGSAT 1 25 Feb 01:58:39 02:02:42 45° 290° (WNW) 02:06:46 437.445
NO-84 25 Feb 02:10:43 02:12:17 12° 235° (SW) 02:13:52 435.350 FM
MOZHAYETS 4 25 Feb 02:17:14 02:20:57 24° 64° (ENE) 02:24:40
RS-15 25 Feb 02:34:54 02:47:22 84° 51° (NE) 02:59:20 29.354- 29.394
AO-7 25 Feb 02:47:17 02:52:26 17° 87° (E) 02:57:32 .
Oscar 19 25 Feb 02:48:37 02:53:41 62° 289° (WNW) 02:58:43 437.125/150
KKS-1 25 Feb 02:52:32 02:55:13 16° 59° (ENE) 02:57:54 437.445
CUBESAT XI-V 25 Feb 03:16:16 03:19:17 17° 60° (ENE) 03:22:17 437.345
ITAMSAT 1 25 Feb 03:21:30 03:26:09 31° 95° (E) 03:30:46 435.822/435.867
ITUPSAT 1 25 Feb 03:22:22 03:26:44 35° 263° (W) 03:31:11 437.325
STARS 25 Feb 03:27:38 03:30:23 17° 60° (ENE) 03:33:09 437.465
BEESAT 25 Feb 03:29:31 03:33:42 30° 265° (W) 03:37:55 436.000
Gurwin Techsat 1B 25 Feb 03:30:11 03:35:19 49° 291° (WNW) 03:40:25 435.225
PCSat 25 Feb 03:39:13 03:41:35 13° 257° (WSW) 03:43:57 145.827
MOZHAYETS 4 25 Feb 03:53:25 03:57:51 44° 262° (W) 04:02:20
M-CUBED/EXP-1 PRIME 25 Feb 04:02:45 04:05:24 23° 61° (ENE) 04:08:05 437.505
KKS-1 25 Feb 04:26:51 04:31:16 68° 257° (WSW) 04:35:43 437.445
Oscar 19 25 Feb 04:30:52 04:32:00 11° 308° (NW) 04:33:07 437.125/150
AO-7 25 Feb 04:38:11 04:46:34 78° 108° (ESE) 04:54:51 .
SO-50 25 Feb 04:42:02 04:43:36 11° 18° (NNE) 04:45:09 436.795
RS-15 25 Feb 04:48:23 04:58:34 33° 256° (WSW) 05:08:27 29.354- 29.394
CUBESAT XI-V 25 Feb 04:51:32 04:56:10 67° 259° (W) 05:00:49 437.345
ITAMSAT 1 25 Feb 05:00:50 05:05:42 40° 294° (WNW) 05:10:32 435.822/435.867
STARS 25 Feb 05:01:55 05:06:15 63° 258° (WSW) 05:10:39 437.465
STRAND 1 25 Feb 05:12:48 05:13:32 10° 51° (NE) 05:14:18 437.568
AO-85 25 Feb 05:15:38 05:20:06 71° 126° (SE) 05:24:18 145.980
M-CUBED/EXP-1 PRIME 25 Feb 05:37:16 05:39:53 22° 259° (WSW) 05:42:32 437.505
CUTE-I 25 Feb 06:06:48 06:10:59 22° 92° (E) 06:15:09 437.470
SO-50 25 Feb 06:21:17 06:25:25 34° 41° (NE) 06:29:31 436.795
KAITUO 1B 25 Feb 06:23:08 06:26:15 24° 94° (E) 06:29:20 145.475/437.950
XW-2F 25 Feb 06:27:12 06:30:38 31° 96° (E) 06:34:02 145.980 - 146.000
XW-2D 25 Feb 06:31:35 06:35:10 37° 97° (E) 06:38:42 145.860 - 145.880
AO-7 25 Feb 06:31:42 06:38:37 31° 309° (NW) 06:45:31 .
BEESAT 3 25 Feb 06:35:54 06:39:21 30° 117° (ESE) 06:42:51 437.485
XW-2B 25 Feb 06:36:35 06:40:14 40° 98° (E) 06:43:50 145.730 - 145.750
DOVE 4 25 Feb 06:44:11 06:48:49 59° 101° (E) 06:53:41 437.250
XW-2C 25 Feb 06:45:08 06:48:55 52° 100° (E) 06:52:38 145.795 - 145.815
STRAND 1 25 Feb 06:46:38 06:51:40 59° 71° (ENE) 06:56:46 437.568
AO-85 25 Feb 06:57:37 07:00:54 21° 323° (NW) 07:04:03 145.980
NUDT-PHONESAT 25 Feb 06:57:57 07:01:42 60° 100° (E) 07:05:24 437.300
LilacSat-2 25 Feb 07:01:40 07:05:34 85° 108° (ESE) 07:09:23 437.200
O/OREOS (USA 219) 25 Feb 07:08:34 07:10:40 13° 43° (NE) 07:12:46 437.305
BEESAT 2 25 Feb 07:13:32 07:17:04 32° 118° (ESE) 07:20:38 435.950
CUTE 1.7 + AOD 2 25 Feb 07:24:47 07:27:45 18° 91° (E) 07:30:42 437.475
HO-68 25 Feb 07:27:06 07:33:08 29° 93° (E) 07:39:08 435.675
CUBEBUG 2 25 Feb 07:41:01 07:43:46 15° 88° (E) 07:46:29 437.445
CUTE-I 25 Feb 07:46:07 07:51:24 57° 290° (WNW) 07:56:39 437.470
PRISM 25 Feb 07:48:36 07:50:08 12° 58° (ENE) 07:51:39 437.425
KAITUO 1B 25 Feb 07:57:00 08:00:17 28° 292° (WNW) 08:03:32 145.475/437.950
XW-2F 25 Feb 08:01:36 08:04:39 23° 294° (WNW) 08:07:40 145.980 - 146.000
SO-50 25 Feb 08:01:45 08:05:57 39° 241° (WSW) 08:10:06 436.795
XW-2D 25 Feb 08:06:18 08:09:09 20° 295° (WNW) 08:11:57 145.860 - 145.880
FO-29 25 Feb 08:10:26 08:14:09 14° 44° (NE) 08:17:55 435.910
XW-2B 25 Feb 08:11:28 08:14:09 18° 296° (WNW) 08:16:50 145.730 - 145.750
AAUSAT CUBESAT 2 25 Feb 08:12:16 08:15:16 19° 92° (E) 08:18:16 437.432
BEESAT 3 25 Feb 08:13:19 08:16:55 33° 317° (NW) 08:20:34 437.485
XW-2A 25 Feb 08:14:12 08:17:42 84° 284° (WNW) 08:21:09 145.665 - 145.685
UWE-3 25 Feb 08:18:13 08:21:51 22° 92° (E) 08:25:25 435.000/436.395/437.385
XW-2C 25 Feb 08:20:27 08:22:43 15° 298° (WNW) 08:24:58 145.795 - 145.815
SEEDS 25 Feb 08:21:43 08:25:46 47° 99° (E) 08:29:47 437.485
DOVE 4 25 Feb 08:22:50 08:26:09 20° 297° (WNW) 08:29:36 437.250
STRAND 1 25 Feb 08:27:27 08:31:14 20° 269° (W) 08:35:03 437.568
ISS 25 Feb 08:32:36 08:35:23 25° 141° (SE) 08:38:11 437.550
NUDT-PHONESAT 25 Feb 08:33:22 08:35:10 13° 299° (WNW) 08:36:59 437.300
LilacSat-2 25 Feb 08:38:37 08:39:12 10° 301° (WNW) 08:39:46 437.200
ZACube-1 25 Feb 08:39:45 08:43:15 21° 91° (E) 08:46:43 437.345
O/OREOS (USA 219) 25 Feb 08:46:20 08:50:55 73° 63° (ENE) 08:55:31 437.305
BEESAT 2 25 Feb 08:51:12 08:54:48 33° 317° (NW) 08:58:30 435.950
Tancredo 1 25 Feb 08:58:18 09:01:23 41° 146° (SE) 09:04:29 437.200
CUTE 1.7 + AOD 2 25 Feb 08:59:47 09:03:51 46° 289° (WNW) 09:07:52 437.475
HO-68 25 Feb 09:14:17 09:21:21 64° 293° (WNW) 09:28:23 435.675
CUBEBUG 2 25 Feb 09:16:07 09:20:53 72° 286° (WNW) 09:25:36 437.445
PRISM 25 Feb 09:20:44 09:24:49 82° 256° (WSW) 09:28:55 437.425
AO-73 25 Feb 09:27:40 09:32:11 57° 100° (E) 09:36:35 145.935
UNISAT 6 25 Feb 09:28:18 09:32:40 49° 70° (ENE) 09:37:09 437.425
TIGRISAT 25 Feb 09:28:41 09:33:00 47° 70° (ENE) 09:37:27 435.000
CUTE-I 25 Feb 09:29:16 09:30:21 11° 310° (NW) 09:31:26 437.470
Oscar 11 25 Feb 09:34:38 09:38:55 57° 100° (E) 09:43:10 .
YUBILEINY 25 Feb 09:45:32 09:52:39 29° 80° (E) 09:59:45 435.215
DELFI C3 25 Feb 09:45:58 09:49:13 24° 94° (E) 09:52:26 145.870
AAUSAT CUBESAT 2 25 Feb 09:47:03 09:50:55 41° 290° (WNW) 09:54:47 437.432
FO-29 25 Feb 09:50:23 09:57:23 52° 66° (ENE) 10:04:55 435.910
UWE-3 25 Feb 09:54:01 09:58:32 47° 290° (WNW) 10:02:58 435.000/436.395/437.385
SEEDS 25 Feb 09:58:11 10:01:08 19° 297° (WNW) 10:04:04 437.485
ISS 25 Feb 10:08:21 10:11:38 67° 339° (NNW) 10:14:56 437.550
ZACube-1 25 Feb 10:15:22 10:19:46 46° 290° (WNW) 10:24:04 437.345
DUCHIFAT 1 25 Feb 10:20:15 10:22:44 15° 60° (ENE) 10:25:14 145.980
O/OREOS (USA 219) 25 Feb 10:27:23 10:29:43 14° 262° (W) 10:32:03 437.305
EO-79 25 Feb 10:30:02 10:33:18 22° 64° (ENE) 10:36:35 145.935-145.965
Tancredo 1 25 Feb 10:34:28 10:37:40 49° 345° (NNW) 10:40:50 437.200
AIST 2D 25 Feb 10:43:16 10:46:36 38° 71° (ENE) 10:49:58 435.315
NANOSAT C BR1 25 Feb 10:46:36 10:50:15 29° 66° (ENE) 10:53:55 145.865
POLYITAN 1 25 Feb 10:46:55 10:50:40 32° 68° (ENE) 10:54:30 437.675
QB50P2 25 Feb 10:49:45 10:53:38 36° 68° (ENE) 10:57:33 145.880/145.840
CUBEBUG 2 25 Feb 10:55:17 10:56:38 11° 305° (NW) 10:57:58 437.445
HO-68 25 Feb 11:03:42 11:07:47 16° 314° (NW) 11:11:51 435.675
AO-73 25 Feb 11:04:47 11:07:59 19° 298° (WNW) 11:11:08 145.935
UNISAT 6 25 Feb 11:06:19 11:09:40 20° 269° (W) 11:13:04 437.425
TIGRISAT 25 Feb 11:06:29 11:09:56 21° 268° (W) 11:13:28 435.000
Oscar 11 25 Feb 11:11:47 11:14:38 17° 298° (WNW) 11:17:27 .
BUGSAT 1 25 Feb 11:16:50 11:19:52 20° 63° (ENE) 11:22:56 437.445
DELFI C3 25 Feb 11:20:34 11:24:01 30° 292° (WNW) 11:27:28 145.870
ESTCUBE 1 25 Feb 11:32:54 11:36:44 27° 95° (E) 11:40:32 437.505/2401.250
FO-29 25 Feb 11:35:53 11:42:34 39° 267° (W) 11:49:47 435.910
YUBILEINY 25 Feb 11:39:52 11:48:40 72° 282° (WNW) 11:57:30 435.215
ISS 25 Feb 11:45:20 11:48:26 36° 359° (N) 11:51:32 437.550
DUCHIFAT 1 25 Feb 11:53:46 11:57:56 64° 259° (WSW) 12:02:10 145.980
VELOX 1 25 Feb 11:58:54 12:01:52 17° 91° (E) 12:04:50 145.980
LO-87 25 Feb 12:03:38 12:07:13 66° 286° (WNW) 12:10:48 145.935 - 145.965
AO-7 25 Feb 12:03:47 12:06:05 11° 30° (NNE) 12:08:22 .
AO-85 25 Feb 12:04:15 12:07:24 22° 38° (NE) 12:10:31 145.980
EO-79 25 Feb 12:04:49 12:08:50 41° 262° (W) 12:12:53 145.935-145.965
SPROUT 25 Feb 12:06:59 12:09:54 17° 91° (E) 12:12:47 437.525
Tancredo 1 25 Feb 12:11:17 12:14:20 36° 5° (N) 12:17:23 437.200
AIST 2D 25 Feb 12:17:47 12:20:01 16° 269° (W) 12:22:17 435.315
NANOSAT C BR1 25 Feb 12:22:12 12:25:54 30° 264° (W) 12:29:40 145.865
POLYITAN 1 25 Feb 12:22:50 12:26:29 27° 265° (W) 12:30:10 437.675
QB50P2 25 Feb 12:26:02 12:29:30 24° 266° (W) 12:33:01 145.880/145.840
Oscar 19 25 Feb 12:29:45 12:34:30 39° 67° (ENE) 12:39:14 437.125/150
50 SAT 25 Feb 12:32:38 12:35:27 23° 95° (E) 12:38:15 437.505
BUGSAT 1 25 Feb 12:51:06 12:54:58 42° 262° (W) 12:58:54 437.445
ITAMSAT 1 25 Feb 13:07:14 13:08:58 12° 52° (NE) 13:10:43 435.822/435.867
ESTCUBE 1 25 Feb 13:09:30 13:13:35 35° 292° (WNW) 13:17:38 437.505/2401.250
BEESAT 3 25 Feb 13:13:06 13:14:51 12° 27° (NNE) 13:16:37 437.485
Gurwin Techsat 1B 25 Feb 13:14:36 13:19:46 54° 69° (ENE) 13:24:58 435.225
ISS 25 Feb 13:22:00 13:25:17 59° 19° (NNE) 13:28:32 437.550
DX 1 25 Feb 13:25:35 13:29:55 58° 102° (ESE) 13:34:12 434.975-435.025
VELOX 1 25 Feb 13:34:20 13:38:39 54° 289° (WNW) 13:42:57 145.980
UKube-1 25 Feb 13:37:35 13:41:51 56° 101° (E) 13:46:05 .
YUBILEINY 25 Feb 13:41:38 13:47:19 18° 306° (NW) 13:53:02 435.215
SPROUT 25 Feb 13:41:55 13:46:07 51° 288° (WNW) 13:50:17 437.525
AO-85 25 Feb 13:44:13 13:48:03 52° 238° (WSW) 13:51:53 145.980
Tancredo 1 25 Feb 13:47:38 13:50:54 83° 25° (NNE) 13:54:07 437.200
AO-7 25 Feb 13:49:04 13:56:27 37° 54° (NE) 14:03:49 .
BEESAT 2 25 Feb 13:51:22 13:53:18 13° 28° (NNE) 13:55:13 435.950
50 SAT 25 Feb 14:05:38 14:08:33 25° 292° (WNW) 14:11:26 437.505
Oscar 19 25 Feb 14:09:20 14:13:53 31° 265° (W) 14:18:27 437.125/150
ITAMSAT 1 25 Feb 14:42:18 14:47:27 65° 71° (ENE) 14:52:39 435.822/435.867
BEESAT 3 25 Feb 14:49:24 14:53:22 52° 49° (NE) 14:57:17 437.485
Gurwin Techsat 1B 25 Feb 14:55:52 15:00:03 23° 268° (W) 15:04:15 435.225
ISS 25 Feb 14:58:39 15:01:37 31° 217° (SW) 15:04:33 437.550
DX 1 25 Feb 15:02:47 15:05:41 18° 299° (WNW) 15:08:33 434.975-435.025
UKube-1 25 Feb 15:14:35 15:17:29 18° 299° (WNW) 15:20:23 .
ITUPSAT 1 25 Feb 15:19:05 15:23:45 46° 99° (E) 15:28:21 437.325
Tancredo 1 25 Feb 15:24:31 15:26:50 18° 222° (SW) 15:29:09 437.200
BEESAT 25 Feb 15:25:33 15:30:16 55° 101° (E) 15:34:57 436.000
BEESAT 2 25 Feb 15:27:57 15:31:58 55° 49° (NE) 15:35:56 435.950
AO-7 25 Feb 15:40:30 15:48:47 65° 255° (WSW) 15:57:07 .
MOZHAYETS 4 25 Feb 15:45:10 15:49:22 34° 96° (E) 15:53:32
KKS-1 25 Feb 16:15:23 16:18:31 18° 92° (E) 16:21:38 437.445
ITAMSAT 1 25 Feb 16:23:46 16:27:23 19° 269° (W) 16:31:03 435.822/435.867
BEESAT 3 25 Feb 16:27:46 16:30:38 19° 247° (WSW) 16:33:28 437.485
PCSat 25 Feb 16:38:07 16:43:19 50° 116° (ESE) 16:48:34 145.827
CUBESAT XI-V 25 Feb 16:45:18 16:49:04 24° 93° (E) 16:52:47 437.345
STARS 25 Feb 16:48:48 16:51:57 19° 92° (E) 16:55:04 437.465
ITUPSAT 1 25 Feb 16:57:28 17:01:19 25° 298° (WNW) 17:05:09 437.325
RS-15 25 Feb 17:02:08 17:12:43 39° 107° (ESE) 17:23:38 29.354- 29.394
BEESAT 25 Feb 17:04:06 17:07:41 21° 299° (WNW) 17:11:15 436.000
KAITUO 1B 25 Feb 17:06:31 17:09:16 19° 65° (ENE) 17:12:02 145.475/437.950
BEESAT 2 25 Feb 17:06:34 17:09:22 18° 247° (WSW) 17:12:10 435.950
XW-2F 25 Feb 17:11:12 17:14:21 25° 67° (ENE) 17:17:32 145.980 - 146.000
M-CUBED/EXP-1 PRIME 25 Feb 17:12:38 17:14:08 12° 97° (E) 17:15:40 437.505
XW-2D 25 Feb 17:15:47 17:19:08 29° 68° (ENE) 17:22:30 145.860 - 145.880
XW-2B 25 Feb 17:20:44 17:24:10 31° 69° (ENE) 17:27:37 145.730 - 145.750
MOZHAYETS 4 25 Feb 17:22:27 17:26:27 30° 294° (WNW) 17:30:26
XW-2C 25 Feb 17:29:11 17:32:47 39° 71° (ENE) 17:36:25 145.795 - 145.815
NO-84 25 Feb 17:29:34 17:32:30 32° 135° (SE) 17:35:43 435.350 FM
CUTE-I 25 Feb 17:31:22 17:36:28 49° 68° (ENE) 17:41:38 437.470
